Regional Weather Roundup
Issued by NWS

Home | Current Version | Previous Version | Graphics & Text | Print | Product List | Glossary On
Versions: 1 2 3 4 5 6 7 8 9 10 11 12 13 14 15 16 17 18 19 20 21 22 23 24 25 26 27 28 29 30 31 32 33 34 35 36 37 38 39 40 41 42 43 44 45 46 47 48 49 50
000
ASUS44 KMEG 221110
RWRTN
TENNESSEE HOURLY STATE WEATHER ROUNDUP
NATIONAL WEATHER SERVICE MEMPHIS TN
500 AM CST THU FEB 22 2018

TNZ002-004-019-021-049-052-054-088>092-221200-
WEST TENNESSEE

CITY           SKY/WX    TMP DP  RH WIND       PRES   REMARKS
MEMPHIS INTL   CLOUDY    43  42  97 NW12      30.26R FOG
NWS MEMPHIS      N/A     45 N/A N/A MISG        N/A
JACKSON        FAIR      51  51 100 VRB6      30.21R
DYERSBURG      CLOUDY    43  42  97 NW5       30.28R
COVINGTON      CLOUDY    45  43  93 N13       30.27R
UNION CITY     CLOUDY    45  43  93 NW9       30.26R
BOLIVAR        MOCLDY    52  52 100 SE12      30.17F
PARIS          CLOUDY    46  45  93 MISG      30.18F
HUNTINGDON     CLOUDY    48  46  93 VRB5G22   30.16F
LEXINGTON      CLOUDY    50  50 100 S8G15     30.22F
SAVANNAH       CLOUDY    54  52  94 SE5       30.25F FOG
$$

TNZ008-025-027-028-033-062-065-066-221200-
NORTH MIDDLE TENNESSEE

CITY           SKY/WX    TMP DP  RH WIND       PRES   REMARKS
NASHVILLE      LGT RAIN  52  50  93 S3        30.30R
PORTLAND       CLOUDY    50  50 100 SE5       30.28R
CLARKSVILLE    LGT RAIN  48  45  89 SE7       30.26R
SMYRNA         LGT RAIN  54  53  97 N6        30.32R
COOKEVILLE     CLOUDY    68  61  77 SW13G18   30.29R
GALLATIN       CLOUDY    52  52 100 CALM      30.32R
CROSSVILLE     CLOUDY    65  59  81 S14G21    30.32R
$$

TNZ061-075-076-078-094-096-097-221200-
SOUTH MIDDLE TENNESSEE

CITY           SKY/WX    TMP DP  RH WIND       PRES   REMARKS
FAYETTEVILLE   MOCLDY    68  64  88 SW10G18   30.32R
TULLAHOMA      MOCLDY    68  63  83 W15G22    30.32R
WINCHESTER     CLOUDY    70  63  78 S12       30.33R
MCMINNVILLE    CLOUDY    68  61  77 S13G22    30.27F
COLUMBIA       CLOUDY    55  55 100 CALM      30.28R FOG
SHELBYVILLE    MOCLDY    63  61  94 SW10      30.32R FOG
$$

TNZ017-018-042-046-047-221200-
NORTHEAST TENNESSEE

CITY           SKY/WX    TMP DP  RH WIND       PRES   REMARKS
TRI CITIES     FAIR      59  57  93 CALM      30.33R
ELIZABETHTON   FAIR      55  54  94 CALM      30.35R
$$

TNZ012-013-036-069-073-074-221200-
CENTRAL EAST TENNESSEE

CITY           SKY/WX    TMP DP  RH WIND       PRES   REMARKS
KNOXVILLE      FAIR      67  61  81 SW13      30.31R
OAK RIDGE      MOCLDY    70  63  78 SW8       30.32R
DOWNTOWN KNOXV MOCLDY    64  63  94 W7        30.31S
GATLINBURG     PTCLDY    59  55  88 CALM      30.32R
MORRISTOWN     CLEAR     57  55  94 CALM      30.33R
JACKSBORO      CLOUDY    72  59  64 SW17G28   30.33R
$$

TNZ083-085-099-221200-
SOUTHEAST TENNESSEE

CITY           SKY/WX    TMP DP  RH WIND       PRES   REMARKS
CHATTANOOGA    FAIR      67  61  81 S7        30.34R
$$

SKY/WX REPORTED AS FAIR MEANS FEW OR NO CLOUDS BELOW
12 THOUSAND FEET.





USA.gov is the U.S. government's official web portal to all federal, state and local government web resources and services.